| time (UTC) | temp F | wind direction | speed knots | gust knots | rain 1hr in | rain 24hr in | rain mn in | humidity % | barometer mb |
| 20260509030054 | 46 | 0 | 0.0 | 0.0 | 0.00 | 0.00 | 0.00 | 44 | 1001.2 |
| 20260509024548 | 48 | 0 | 0.0 | 0.0 | 0.00 | 0.00 | 0.00 | 43 | 1001.4 |
| 20260509023050 | 49 | 0 | 0.0 | 0.9 | 0.00 | 0.00 | 0.00 | 41 | 1001.3 |
| 20260509021553 | 50 | 0 | 0.9 | 3.5 | 0.00 | 0.00 | 0.00 | 40 | 1001.4 |
| 20260509020052 | 51 | 360 | 0.9 | 7.0 | 0.00 | 0.00 | 0.00 | 40 | 1001.5 |
| 20260509014549 | 52 | 285 | 0.0 | 7.0 | 0.00 | 0.00 | 0.00 | 39 | 1001.2 |
| 20260509013055 | 53 | 0 | 1.7 | 9.6 | 0.00 | 0.00 | 0.00 | 42 | 1001.1 |
| 20260509011548 | 54 | 309 | 2.6 | 9.6 | 0.00 | 0.00 | 0.00 | 40 | 1000.9 |
| 20260509010052 | 55 | 302 | 2.6 | 13.0 | 0.00 | 0.00 | 0.00 | 40 | 1000.8 |
| 20260509004550 | 56 | 289 | 2.6 | 10.4 | 0.00 | 0.00 | 0.00 | 42 | 1000.3 |
| 20260509003052 | 57 | 0 | 0.9 | 5.2 | 0.00 | 0.00 | 0.00 | 40 | 1000.2 |
| 20260509001550 | 57 | 84 | 0.9 | 7.0 | 0.00 | 0.00 | 0.00 | 39 | 999.9 |
| 20260509000050 | 58 | 328 | 0.9 | 6.1 | 0.00 | 0.00 | 0.00 | 37 | 1000.2 |
| 20260508234552 | 58 | 275 | 2.6 | 12.2 | 0.00 | 0.00 | 0.00 | 36 | 1000.2 |
| 20260508233114 | 60 | 285 | 1.7 | 6.1 | 0.00 | 0.00 | 0.00 | 33 | 1000.3 |
| 20260508231552 | 58 | 0 | 0.0 | 9.6 | 0.00 | 0.00 | 0.00 | 35 | 1000.5 |
| 20260508230056 | 58 | 35 | 0.9 | 5.2 | 0.00 | 0.00 | 0.00 | 35 | 1000.8 |
| 20260508224605 | 58 | 0 | 1.7 | 6.1 | 0.00 | 0.00 | 0.00 | 34 | 1000.7 |
| 20260508223050 | 58 | 296 | 1.7 | 7.8 | 0.00 | 0.00 | 0.00 | 34 | 1000.9 |
| 20260508221549 | 58 | 309 | 0.0 | 5.2 | 0.00 | 0.00 | 0.00 | 34 | 1000.8 |
| 20260508220050 | 58 | 253 | 2.6 | 7.8 | 0.00 | 0.00 | 0.00 | 35 | 1001.1 |
| 20260508214551 | 58 | 229 | 0.0 | 5.2 | 0.00 | 0.00 | 0.00 | 36 | 1001.1 |
| 20260508213054 | 58 | 235 | 3.5 | 8.7 | 0.00 | 0.00 | 0.00 | 34 | 1001.3 |
| 20260508211551 | 58 | 234 | 2.6 | 15.6 | 0.00 | 0.00 | 0.00 | 35 | 1001.4 |
| 20260508210055 | 58 | 237 | 4.3 | 9.6 | 0.00 | 0.00 | 0.00 | 32 | 1001.2 |
| 20260508204553 | 58 | 247 | 1.7 | 10.4 | 0.00 | 0.00 | 0.00 | 34 | 1001.5 |
| 20260508203058 | 59 | 256 | 2.6 | 16.5 | 0.00 | 0.00 | 0.00 | 33 | 1001.7 |
| 20260508201552 | 58 | 249 | 3.5 | 11.3 | 0.00 | 0.00 | 0.00 | 33 | 1001.7 |
| 20260508200105 | 58 | 238 | 3.5 | 10.4 | 0.00 | 0.00 | 0.00 | 35 | 1001.9 |
| 20260508194552 | 57 | 296 | 4.3 | 12.2 | 0.00 | 0.00 | 0.00 | 35 | 1002.2 |
| 20260508193058 | 57 | 268 | 2.6 | 13.0 | 0.00 | 0.00 | 0.00 | 34 | 1002.3 |
| 20260508191555 | 57 | 22 | 3.5 | 13.0 | 0.00 | 0.00 | 0.00 | 33 | 1002.4 |
| 20260508190053 | 56 | 221 | 3.5 | 11.3 | 0.00 | 0.00 | 0.00 | 34 | 1002.7 |
| 20260508184554 | 56 | 236 | 1.7 | 9.6 | 0.00 | 0.00 | 0.00 | 36 | 1003.0 |
| 20260508183055 | 56 | 293 | 2.6 | 10.4 | 0.00 | 0.00 | 0.00 | 36 | 1003.2 |
| 20260508181557 | 56 | 192 | 3.5 | 8.7 | 0.00 | 0.00 | 0.00 | 34 | 1003.3 |
| 20260508180052 | 56 | 290 | 1.7 | 12.2 | 0.00 | 0.00 | 0.00 | 35 | 1003.8 |
| 20260508174610 | 55 | 275 | 2.6 | 10.4 | 0.00 | 0.00 | 0.00 | 34 | 1003.8 |
| 20260508173051 | 55 | 174 | 1.7 | 9.6 | 0.00 | 0.00 | 0.00 | 34 | 1004.0 |
| 20260508171557 | 55 | 232 | 2.6 | 11.3 | 0.00 | 0.00 | 0.00 | 34 | 1004.5 |
| 20260508170054 | 55 | 200 | 3.5 | 12.2 | 0.00 | 0.00 | 0.00 | 36 | 1004.7 |
| 20260508164552 | 56 | 256 | 2.6 | 7.0 | 0.00 | 0.00 | 0.00 | 34 | 1004.8 |
| 20260508163051 | 55 | 261 | 4.3 | 11.3 | 0.00 | 0.00 | 0.00 | 33 | 1005.1 |
| 20260508161551 | 56 | 317 | 1.7 | 8.7 | 0.00 | 0.00 | 0.00 | 35 | 1005.2 |
| 20260508160053 | 54 | 246 | 1.7 | 10.4 | 0.00 | 0.00 | 0.00 | 38 | 1005.4 |
| 20260508154551 | 54 | 231 | 2.6 | 6.1 | 0.00 | 0.00 | 0.00 | 34 | 1005.6 |
| 20260508153047 | 53 | 244 | 1.7 | 8.7 | 0.00 | 0.00 | 0.00 | 37 | 1005.9 |
| 20260508151557 | 53 | 293 | 1.7 | 7.8 | 0.00 | 0.00 | 0.00 | 37 | 1006.1 |
| 20260508150050 | 53 | 15 | 1.7 | 8.7 | 0.00 | 0.00 | 0.00 | 39 | 1006.0 |
| 20260508144552 | 51 | 283 | 1.7 | 7.0 | 0.00 | 0.00 | 0.00 | 42 | 1006.2 |
| 20260508143101 | 49 | 261 | 1.7 | 5.2 | 0.00 | 0.00 | 0.00 | 47 | 1006.3 |
| 20260508141556 | 47 | 164 | 0.0 | 5.2 | 0.00 | 0.00 | 0.00 | 50 | 1006.5 |
| 20260508140059 | 45 | 288 | 1.7 | 7.0 | 0.00 | 0.00 | 0.00 | 54 | 1006.7 |
| 20260508134554 | 43 | 175 | 0.9 | 5.2 | 0.00 | 0.00 | 0.00 | 59 | 1006.7 |
| 20260508133057 | 41 | 230 | 0.9 | 4.3 | 0.00 | 0.00 | 0.00 | 61 | 1006.9 |
| 20260508131557 | 39 | 242 | 0.0 | 2.6 | 0.00 | 0.00 | 0.00 | 67 | 1006.9 |
| 20260508130103 | 36 | 32 | 0.0 | 1.7 | 0.00 | 0.00 | 0.00 | 69 | 1007.1 |
| 20260508124556 | 34 | 0 | 0.0 | 1.7 | 0.00 | 0.00 | 0.00 | 73 | 1007.0 |
| 20260508123057 | 32 | 0 | 0.0 | 0.0 | 0.00 | 0.00 | 0.00 | 78 | 1007.0 |
| 20260508121557 | 29 | 0 | 0.0 | 0.0 | 0.00 | 0.00 | 0.00 | 85 | 1007.0 |
| 20260508120054 | 26 | 0 | 0.0 | 0.0 | 0.00 | 0.00 | 0.00 | 89 | 1006.9 |
| 20260508114552 | 24 | 0 | 0.0 | 0.0 | 0.00 | 0.00 | 0.00 | 90 | 1007.0 |
| 20260508113050 | 22 | 0 | 0.0 | 0.0 | 0.00 | 0.00 | 0.00 | 91 | 1006.9 |
| 20260508111552 | 22 | 0 | 0.0 | 0.0 | 0.00 | 0.00 | 0.00 | 90 | 1006.9 |
| 20260508110055 | 22 | 0 | 0.0 | 0.0 | 0.00 | 0.00 | 0.00 | 90 | 1007.1 |
| 20260508104600 | 22 | 0 | 0.0 | 0.0 | 0.00 | 0.00 | 0.00 | 89 | 1006.9 |
| 20260508103052 | 22 | 0 | 0.0 | 0.0 | 0.00 | 0.00 | 0.00 | 89 | 1007.0 |
| 20260508101554 | 22 | 0 | 0.0 | 0.0 | 0.00 | 0.00 | 0.00 | 89 | 1007.1 |
| 20260508100051 | 23 | 0 | 0.0 | 0.0 | 0.00 | 0.00 | 0.00 | 89 | 1007.1 |
| 20260508094600 | 23 | 0 | 0.0 | 0.0 | 0.00 | 0.00 | 0.00 | 89 | 1007.0 |
| 20260508093100 | 24 | 0 | 0.0 | 0.0 | 0.00 | 0.00 | 0.00 | 88 | 1007.2 |
| 20260508091604 | 24 | 0 | 0.0 | 0.0 | 0.00 | 0.00 | 0.00 | 88 | 1007.1 |
| 20260508090111 | 24 | 0 | 0.0 | 0.0 | 0.00 | 0.00 | 0.00 | 88 | 1007.0 |
| 20260508084557 | 24 | 0 | 0.0 | 0.0 | 0.00 | 0.00 | 0.00 | 87 | 1007.0 |
| 20260508083055 | 24 | 0 | 0.0 | 0.0 | 0.00 | 0.00 | 0.00 | 87 | 1007.1 |
| 20260508081610 | 25 | 0 | 0.0 | 0.0 | 0.00 | 0.00 | 0.00 | 87 | 1007.2 |
| 20260508080051 | 25 | 0 | 0.0 | 0.0 | 0.00 | 0.00 | 0.00 | 86 | 1007.4 |
| 20260508074551 | 25 | 0 | 0.0 | 0.0 | 0.00 | 0.00 | 0.00 | 86 | 1007.3 |
| 20260508073100 | 25 | 0 | 0.0 | 0.0 | 0.00 | 0.00 | 0.00 | 85 | 1007.6 |
| 20260508071613 | 25 | 0 | 0.0 | 0.0 | 0.00 | 0.00 | 0.00 | 84 | 1007.6 |
| 20260508070058 | 26 | 0 | 0.0 | 0.0 | 0.00 | 0.00 | 0.00 | 84 | 1007.8 |
| 20260508064553 | 26 | 0 | 0.0 | 0.0 | 0.00 | 0.00 | 0.00 | 84 | 1007.9 |
| 20260508063050 | 26 | 0 | 0.0 | 0.0 | 0.00 | 0.00 | 0.00 | 82 | 1008.1 |
| 20260508061551 | 26 | 0 | 0.0 | 0.0 | 0.00 | 0.00 | 0.00 | 82 | 1008.3 |
| 20260508060051 | 26 | 0 | 0.0 | 0.0 | 0.00 | 0.00 | 0.00 | 81 | 1008.4 |
| 20260508054602 | 27 | 0 | 0.0 | 0.0 | 0.00 | 0.00 | 0.00 | 80 | 1008.6 |
| 20260508053053 | 27 | 0 | 0.0 | 0.0 | 0.00 | 0.00 | 0.00 | 78 | 1008.6 |
| 20260508051550 | 28 | 0 | 0.0 | 0.0 | 0.00 | 0.00 | 0.00 | 77 | 1008.6 |
| 20260508050051 | 28 | 0 | 0.0 | 0.0 | 0.00 | 0.00 | 0.00 | 76 | 1008.9 |
| 20260508044557 | 29 | 0 | 0.0 | 0.0 | 0.00 | 0.00 | 0.00 | 75 | 1008.7 |
| 20260508043050 | 29 | 0 | 0.0 | 0.0 | 0.00 | 0.00 | 0.00 | 75 | 1008.9 |
| 20260508041551 | 29 | 0 | 0.0 | 0.0 | 0.00 | 0.00 | 0.00 | 73 | 1009.1 |
| 20260508040059 | 30 | 0 | 0.0 | 0.0 | 0.00 | 0.00 | 0.00 | 70 | 1009.0 |
| 20260508034552 | 32 | 0 | 0.0 | 0.0 | 0.00 | 0.00 | 0.00 | 69 | 1009.1 |
| 20260508033112 | 32 | 0 | 0.0 | 0.0 | 0.00 | 0.00 | 0.00 | 66 | 1009.2 |
| 20260508031549 | 33 | 0 | 0.0 | 0.0 | 0.00 | 0.00 | 0.00 | 64 | 1009.1 |